Location: Lecco
(45.8566°N, 9.3977°E)
Time: 13:21:03
(UTC+02:00)

Vanguard 2 Rocket - Pass Details

Date: 18 August 2020
Orbit: 554 x 3326 km, 32.9° (Epoch: 24 September)

Event Time Altitude Azimuth Distance (km) Brightness Sun altitude
Rises 17:18:57 0° 227° (SW) 2,804 10.3 31.1°
Reaches altitude 10° 17:21:33 10° 207° (SSW) 2,050 9.4 30.7°
Maximum altitude 17:24:45 19° 162° (SSE) 1,792 8.5 30.1°
Drops below altitude 10° 17:28:52 10° 120° (ESE) 2,723 9.0 29.4°
Sets 17:33:03 0° 104° (ESE) 4,162 9.8 28.7°
